This is the latest recevied weather packets stored in our database for station/object KA9CBS. If no packets are shown the sender has not sent any weather packets the latest 10 day(s).
| Time | Temp. | Humidity | Pressure | Rain* | Wind** | Luminosity | Snow |
|---|---|---|---|---|---|---|---|
| 1787516893 | 26.67° C | 58% | 1018.6 hPa | 0 mm | - | 393 W/m² | - |
| 1787516588 | 26.67° C | 57% | 1018.7 hPa | 0 mm | - | 384 W/m² | - |
| 1787516283 | 26.67° C | 54% | 1018.5 hPa | 0 mm | - | 482 W/m² | - |
| 1787515978 | 26.67° C | 54% | 1018.8 hPa | 0 mm | - | 584 W/m² | - |
| 1787515674 | 27.22° C | 52% | 1018.8 hPa | 0 mm | - | 583 W/m² | - |
| 1787515369 | 27.22° C | 57% | 1018.8 hPa | 0 mm | - | 628 W/m² | - |
| 1787515063 | 26.67° C | 52% | 1018.9 hPa | 0 mm | - | 645 W/m² | - |
| 1787514761 | 26.67° C | 56% | 1018.9 hPa | 0 mm | - | 664 W/m² | - |
| 1787514457 | 26.67° C | 52% | 1018.8 hPa | 0 mm | - | 471 W/m² | - |
| 1787514157 | 26.67° C | 54% | 1019 hPa | 0 mm | - | 643 W/m² | - |
| 1787513851 | 27.22° C | 55% | 1019.4 hPa | 0 mm | - | 577 W/m² | - |
| 1787513547 | 26.67° C | 57% | 1019 hPa | 0 mm | - | 661 W/m² | - |
| 1787513243 | 27.22° C | 54% | 1018.9 hPa | 0 mm | - | 480 W/m² | - |
| 1787512939 | 26.67° C | 57% | 1019.5 hPa | 0 mm | - | 537 W/m² | - |
| 1787512636 | 26.67° C | 57% | 1019.3 hPa | 0 mm | - | 688 W/m² | - |
| 1787512331 | 26.67° C | 55% | 1019.3 hPa | 0 mm | - | 666 W/m² | - |
| 1787512026 | 26.67° C | 56% | 1019.4 hPa | 0 mm | - | 661 W/m² | - |
| 1787511722 | 26.67° C | 57% | 1019.6 hPa | 0 mm | - | 673 W/m² | - |
| 1787511421 | 27.22° C | 54% | 1019.6 hPa | 0 mm | - | 641 W/m² | - |
| 1787511115 | 27.22° C | 56% | 1019.7 hPa | 0 mm | - | 638 W/m² | - |
| 1787510814 | 26.67° C | 54% | 1019.5 hPa | 0 mm | - | 620 W/m² | - |
| 1787510510 | 26.67° C | 56% | 1019.5 hPa | 0 mm | - | 665 W/m² | - |
| 1787510205 | 26.67° C | 55% | 1019.7 hPa | 0 mm | - | 681 W/m² | - |
| 1787509901 | 26.67° C | 55% | 1019.8 hPa | 0 mm | - | 654 W/m² | - |
| 1787509602 | 26.67° C | 57% | 1019.8 hPa | 0 mm | - | 694 W/m² | - |
* Rain latest hour (hover to see other rain measurements)
** Current wind speed in m/s (hover to see current wind gust speed)